Location: Kitchener-Waterloo
(43.4500°N, 80.5000°W)
Time: 00:09:35
(UTC-04:00)

ISS - All Passes

Search period start: 20 June 2018 00:00
Search period end: 30 June 2018 00:00
Orbit: 402 x 406 km, 51.6° (Epoch: 20 June)

Date Brightness Start Highest point End Pass type
(mag) Time Alt. Az. Time Alt. Az. Time Alt. Az.
20 Jun - 09:13:26 10° SSE 09:15:05 13° SE 09:16:44 10° E daylight
20 Jun - 10:47:51 10° WSW 10:51:09 82° NNW 10:54:27 10° ENE daylight
20 Jun - 12:25:16 10° WNW 12:27:59 23° NNW 12:30:43 10° NE daylight
20 Jun - 14:02:42 10° NW 14:05:15 20° N 14:07:48 10° ENE daylight
20 Jun - 15:39:04 10° NW 15:42:17 49° NNE 15:45:29 10° ESE daylight
20 Jun - 17:15:53 10° W 17:18:35 23° SW 17:21:14 10° S daylight
21 Jun - 09:55:40 10° SW 09:58:53 54° SE 10:02:07 10° ENE daylight
21 Jun - 11:32:33 10° W 11:35:31 30° NNW 11:38:28 10° NE daylight
21 Jun - 13:10:15 10° NW 13:12:42 19° N 13:15:10 10° NE daylight
21 Jun - 14:46:50 10° NW 14:49:52 33° NNE 14:52:54 10° E daylight
21 Jun - 16:23:16 10° WNW 16:26:24 42° SW 16:29:32 10° SSE daylight
22 Jun - 09:03:47 10° SSW 09:06:41 29° SE 09:09:35 10° ENE daylight
22 Jun - 10:39:55 10° W 10:43:04 42° NNW 10:46:14 10° NE daylight
22 Jun - 12:17:39 10° NW 12:20:09 20° N 12:22:40 10° NE daylight
22 Jun - 13:54:35 10° NW 13:57:24 25° NNE 14:00:12 10° ENE daylight
22 Jun - 15:30:52 10° WNW 15:34:10 80° SSW 15:37:26 10° SE daylight
22 Jun - 17:09:36 10° WSW 17:10:07 10° SW 17:10:38 10° SW daylight
23 Jun - 08:12:24 10° S 08:14:33 16° SE 08:16:42 10° E daylight
23 Jun - 09:47:25 10° WSW 09:50:41 68° NNW 09:53:58 10° NE daylight
23 Jun - 11:24:57 10° WNW 11:27:36 22° N 11:30:15 10° NE daylight
23 Jun - 13:02:15 10° NW 13:04:52 21° N 13:07:28 10° ENE daylight
23 Jun - 14:38:34 10° NW 14:41:49 59° NNE 14:45:04 10° ESE daylight
23 Jun - 16:15:38 10° W 16:18:02 19° SW 16:20:26 10° S daylight
24 Jun - 08:55:06 10° SW 08:58:21 68° SE 09:01:39 10° ENE daylight
24 Jun - 10:32:11 10° WNW 10:35:04 27° NNW 10:37:57 10° NE daylight
24 Jun - 12:09:49 10° NW 12:12:17 19° N 12:14:46 10° NE daylight
24 Jun - 13:46:19 10° NW 13:49:25 37° NNE 13:52:30 10° E daylight
24 Jun - 15:22:50 10° WNW 15:25:52 34° SW 15:28:52 10° SSE daylight
25 Jun - 08:03:03 10° SSW 08:06:06 36° SE 08:09:09 10° ENE daylight
25 Jun - 09:39:29 10° W 09:42:34 36° NNW 09:45:40 10° NE daylight
25 Jun - 11:17:13 10° NW 11:19:42 19° N 11:22:10 10° NE daylight
25 Jun - 12:54:02 10° NW 12:56:55 27° NNE 12:59:48 10° ENE daylight
25 Jun - 14:30:21 10° WNW 14:33:37 65° SW 14:36:51 10° SE daylight
26 Jun - 07:11:26 10° S 07:13:54 20° SE 07:16:23 10° E daylight
26 Jun - 08:46:53 10° WSW 08:50:07 57° NNW 08:53:23 10° NE daylight
26 Jun - 10:24:30 10° WNW 10:27:06 21° N 10:29:42 10° NE daylight
26 Jun - 12:01:42 10° NW 12:04:22 22° NNE 12:07:02 10° ENE daylight
26 Jun - 13:37:59 10° NW 13:41:15 71° NNE 13:44:32 10° ESE daylight
26 Jun - 15:15:20 10° W 15:17:22 16° SW 15:19:25 10° S daylight
27 Jun - 06:20:53 10° SE 06:21:46 11° SE 06:22:40 10° ESE daylight
27 Jun - 07:54:27 10° SW 07:57:44 84° SSE 08:01:02 10° ENE daylight
27 Jun - 09:31:44 10° WNW 09:34:31 25° NNW 09:37:18 10° NE daylight
27 Jun - 11:09:15 10° NW 11:11:46 20° N 11:14:16 10° NE daylight
27 Jun - 12:45:39 10° NW 12:48:49 43° NNE 12:51:59 10° E daylight
27 Jun - 14:22:19 10° WNW 14:25:12 28° SW 14:28:03 10° SSE daylight
28 Jun - 07:02:16 10° SW 07:05:24 44° SE 07:08:34 10° ENE daylight
28 Jun - 08:38:57 10° W 08:41:58 32° NNW 08:44:59 10° NE daylight
28 Jun - 10:16:40 10° NW 10:19:08 19° N 10:21:35 10° NE daylight
28 Jun - 11:53:21 10° NW 11:56:19 30° NNE 11:59:16 10° E daylight
28 Jun - 13:29:42 10° WNW 13:32:55 52° SW 13:36:07 10° SE daylight
29 Jun - 06:10:26 10° SSW 06:13:08 24° SE 06:15:53 10° E daylight
29 Jun - 07:46:16 10° WSW 07:49:27 48° NNW 07:52:40 10° NE daylight
29 Jun - 09:23:56 10° WNW 09:26:29 20° N 09:29:02 10° NE daylight
29 Jun - 11:01:00 10° NW 11:03:44 24° NNE 11:06:28 10° ENE daylight
29 Jun - 12:37:16 10° WNW 12:40:34 85° NE 12:43:51 10° ESE daylight
29 Jun - 14:15:05 10° WSW 14:16:35 13° SW 14:18:06 10° SSW daylight
